User: anonymous   Login
Location: Newark
(52.8300°N, 8.0000°E)
Time: 19:44:28
(UTC+00:00)
Language:

STARLINK-1070 - Orbit

View from above orbital plane
View from above orbital plane
View from above satellite
View from above satellite

Ground track
Ground track

The orbit data is extracted from the following two-line orbital elements,

1 44956C 20001AU  20091.54585004 -.00010087  00000-0 -10992-3 0   919
2 44956  53.0006 338.0175 0001281  71.0466  80.9470 15.62765292    11
Epoch (UTC): 31 March 2020 13:06:01
Eccentricity: 0.0001281
inclination: 53.0006°
perigee height: 379 km
apogee height: 380 km
right ascension of ascending node: 338.0175°
argument of perigee: 71.0466°
revolutions per day: 15.62765292
mean anomaly at epoch: 80.9470°
orbit number at epoch: 1

The dashed part of the orbit path shows where the satellite is in the earth's shadow,  

DLR